Weather History for Burlington, CO

Change the Weather History Date:

Sunday, April 21, 2013

  Actual Average Record
Temperature  
Mean Temperature 50 °F 49 °F  
Max Temperature 67 °F 64 °F 92 °F (1989)
Min Temperature 33 °F 35 °F 10 °F (1927)
Degree Days  
Heating Degree Days 16    
Moisture  
Dew Point 29 °F    
Average Humidity 45    
Maximum Humidity 79    
Minimum Humidity 23    
Precipitation  
Precipitation 0.00 in 0.06 in 1.00 in (1952)
Month to date precipitation 0.09 0.87  
Year to date precipitation 2.68 2.56  
Sea Level Pressure  
Sea Level Pressure 29.97 in    
Wind  
Wind Speed 7 mph (NNW)    
Max Wind Speed 16 mph    
Max Gust Speed 24 mph    
Visibility 10 miles    
Events      
T = Trace of Precipitation, MM = Missing Value Source: NWS Daily Summary

Daily Weather History Graph

Daily Weather History Graph

Search for Another Location

Airport:

Trip Planner

Search our weather history database for the weather conditions in past years. The results will help you decide how hot, cold, wet, or windy it might be!

Date:

Astronomy

Apr. 21, 2013 Rise Set
Actual Time 6:03 AM MDT 7:32 PM MDT
Civil Twilight 5:35 AM MDT 8:01 PM MDT
Nautical Twilight 5:01 AM MDT 8:35 PM MDT
Astronomical Twilight 4:25 AM MDT 9:10 PM MDT
Moon 3:21 PM MDT (4/21) 3:24 AM MDT (4/21)
Length of Visible Light 14h 25m
Length of Day
13h 29m
Waxing Gibbous, 80% of the Moon is Illuminated
Apr 21
Waxing Gibbous
Apr 25
Full
May 2
Last Quarter
May 9
New
May 17
First Quarter

Hourly Weather History & Observations

Time (MDT) Temp. Windchill Dew Point Humidity Pressure Visibility Wind Dir Wind Speed Gust Speed Precip Events Conditions
12:53 AM 39.9 °F 37.8 °F 27.0 °F 60% 29.96 in 10.0 mi SSW 3.5 mph - N/A   Overcast
1:53 AM 39.0 °F 34.0 °F 27.0 °F 62% 29.95 in 10.0 mi SW 6.9 mph - N/A   Overcast
2:53 AM 39.0 °F 32.8 °F 28.0 °F 65% 29.94 in 10.0 mi WSW 9.2 mph - N/A   Overcast
3:53 AM 37.9 °F 33.5 °F 28.0 °F 68% 29.95 in 10.0 mi West 5.8 mph - N/A   Partly Cloudy
4:53 AM 37.0 °F 29.8 °F 27.0 °F 67% 29.96 in 10.0 mi WNW 10.4 mph - N/A   Clear
5:53 AM 35.1 °F 27.4 °F 28.0 °F 76% 29.97 in 10.0 mi WNW 10.4 mph - N/A   Clear
6:53 AM 36.0 °F 31.1 °F 30.0 °F 79% 30.00 in 10.0 mi West 5.8 mph - N/A   Clear
7:53 AM 46.0 °F 43.1 °F 33.1 °F 61% 30.03 in 10.0 mi WNW 5.8 mph - N/A   Clear
8:53 AM 51.1 °F - 33.1 °F 50% 30.02 in 10.0 mi Calm Calm - N/A   Clear
9:53 AM 59.0 °F - 32.0 °F 36% 30.01 in 10.0 mi NNW 11.5 mph 18.4 mph N/A   Clear
10:53 AM 63.0 °F - 28.0 °F 27% 30.00 in 10.0 mi North 16.1 mph 21.9 mph N/A   Clear
11:53 AM 64.0 °F - 27.0 °F 25% 29.99 in 10.0 mi North 11.5 mph 17.3 mph N/A   Clear
12:53 PM 64.9 °F - 26.1 °F 23% 29.97 in 10.0 mi NNW 12.7 mph 24.2 mph N/A   Partly Cloudy
1:53 PM 64.0 °F - 26.1 °F 24% 29.97 in 10.0 mi North 12.7 mph 19.6 mph N/A   Overcast
2:53 PM 64.0 °F - 26.1 °F 24% 29.96 in 10.0 mi East 4.6 mph - N/A   Clear
3:53 PM 64.9 °F - 26.1 °F 23% 29.95 in 10.0 mi ENE 5.8 mph - N/A   Mostly Cloudy
4:53 PM 64.0 °F - 26.1 °F 24% 29.94 in 10.0 mi Variable 6.9 mph - N/A   Partly Cloudy
5:53 PM 64.0 °F - 26.1 °F 24% 29.94 in 10.0 mi ENE 8.1 mph - N/A   Clear
6:53 PM 57.9 °F - 28.0 °F 32% 29.96 in 10.0 mi ENE 6.9 mph - N/A   Clear
7:53 PM 54.0 °F - 28.9 °F 38% 29.96 in 10.0 mi NNE 8.1 mph - N/A   Overcast
8:53 PM 54.0 °F - 30.0 °F 40% 29.98 in 10.0 mi NNW 5.8 mph - N/A   Overcast
9:53 PM 51.1 °F - 33.1 °F 50% 29.96 in 10.0 mi North 5.8 mph - N/A   Clear
10:53 PM 51.1 °F - 33.1 °F 50% 29.95 in 10.0 mi NE 11.5 mph - N/A   Overcast
11:53 PM 52.0 °F - 33.1 °F 49% 29.96 in 10.0 mi North 12.7 mph - N/A   Overcast